Noah López

Scout - Rosario Central
8 Okt 2026
Donnerstag
Verarbeitung

Persönlichkeit

Anpassungsfähigkeit (17) Ehrgeiz (7) Kontroverse (15) Loyalität (5) Druck (18) Professionalität (2) Fairness (5) Temperament (8)

Profil

Trainerstil Demokratisch
Lizenz Kontinentale B
Entschlossenheit 8
Menschenführung 6
Motivation 8
Disziplin 10
Arbeitszufriedenheit
50%
Ermüdung
0%
Rolle Scout
Gehalt 86.5K p/W
Vertrag 14.03.2029

Leistung

Verhalten Normal
Trainingseffektivität
26%
Spielerentwicklung
50%
Verletzungsprävention
35%
Taktische Umsetzung
50%

Letzte Ereignisse

Spieler begutachtet jetzt
Spieler begutachtet jetzt
Nahm an einer Scouting-Besprechung teil jetzt
Spieler begutachtet jetzt
Spieler begutachtet 7T her
Spieler begutachtet 7T her
Spieler begutachtet 7T her
Spieler begutachtet 7T her

Aktuell beobachtet

82
Spieler Verein Status Fähigkeit Vertrauen Beobachtet Zuletzt beobachtet Letzte Stimme
Joel Orlando Almagro Aktiv 103 / 107 40% 2 07.10.2026 -
Sławomir Abramowicz Jagiellonia Aktiv 140 / 136 40% 2 07.10.2026 -
David Valencia Cortulua Aktiv 137 / 123 40% 1 07.10.2026 -
Afimico Pululu Al-Hazem Aktiv 144 / 117 40% 1 07.10.2026 -
Svetoslav Vutsov Levski Aktiv 135 / 109 40% 1 07.10.2026 -
Khama Dolly Platinum Stars Aktiv 131 / 128 40% 1 07.10.2026 -
Marek Sestak FK Senica Aktiv 117 / 133 40% 2 05.10.2026 -
Jerónimo Russo Newell's Old Boys Aktiv 90 / 101 40% 1 05.10.2026 -
Favio Cabral Mitre Aktiv 115 / 106 40% 1 05.10.2026 -
Ignacio Lago Colón Aktiv 110 / 122 40% 1 05.10.2026 -
Luka Andrade Montevideo City Torque Aktiv 99 / 98 40% 2 02.10.2026 -
Amin Boudri Los Angeles Football Club Aktiv 137 / 111 40% 1 02.10.2026 -
Riqui Puig LA Galaxy Aktiv 143 / 118 40% 1 02.10.2026 -
Keagan Mokoena Free State Stars Aktiv 93 / 80 40% 1 02.10.2026 -
Diego Porcel Argentinos Juniors Aktiv 109 / 134 40% 2 01.10.2026 -
Ramiro Ruiz Rodríguez Atlético Tucumán Aktiv 113 / 125 40% 1 29.09.2026 -
Kévin Denkey FC Cincinnati Aktiv 120 / 118 40% 1 29.09.2026 -
Pascal Loretz Luzern Aktiv 103 / 138 40% 1 28.09.2026 -
Matthieu Epolo Standard Liege Aktiv 126 / 121 40% 1 28.09.2026 -
Carlos Gugenheim Almirante Brown Aktiv 109 / 118 40% 1 28.09.2026 -
Wessam Abou Ali Columbus Crew Aktiv 148 / 120 40% 1 28.09.2026 -
Darren Yapi Colorado Rapids Aktiv 121 / 106 40% 1 27.09.2026 -
Bruno Caicedo Vancouver Whitecaps Aktiv 122 / 128 40% 1 27.09.2026 -
Alan Cisnero Shukura Aktiv 106 / 118 40% 2 26.09.2026 -
Tiago Pucciarelli All Boys Aktiv 83 / 105 40% 1 26.09.2026 -
Fedor Lapoukhov CSKA Sofia Aktiv 101 / 130 40% 2 24.09.2026 -
Santiago Sandoval Guadalajara Aktiv 81 / 102 40% 2 24.09.2026 -
Laureano Martínez Talleres Aktiv 116 / 98 40% 1 24.09.2026 -
Kasra Taheri Sepahan Aktiv 94 / 133 40% 1 24.09.2026 -
David Fernández O'Higgins Aktiv 115 / 108 40% 2 23.09.2026 -
Arkaitz Mariezkurrena Real Sociedad Aktiv 102 / 115 40% 2 23.09.2026 -
Emi Ochoa Cruz Azul Aktiv 112 / 129 40% 2 21.09.2026 -
Fahad Hassan Al Shabab Aktiv 111 / 133 40% 1 21.09.2026 -
Luka Lijeskić Radnicki 1923 Aktiv 87 / 103 40% 1 20.09.2026 -
Marcelo Flores Tigres Aktiv 136 / 127 40% 1 20.09.2026 -
Theo Corbeanu Toronto FC Aktiv 119 / 132 40% 1 20.09.2026 -
Agustín Ruberto River Plate Aktiv 126 / 119 40% 2 19.09.2026 -
Obed Nkambadio Standard Liege Aktiv 116 / 111 40% 1 16.09.2026 -
Erick Reyes Toluca Aktiv 137 / 131 40% 1 16.09.2026 -
Randall Rodríguez River Plate Aktiv 112 / 108 40% 3 14.09.2026 -
Jan Koutný Sigma Olomouc Aktiv 128 / 115 40% 1 14.09.2026 -
Enrique Almeida Cerro Largo Aktiv 96 / 92 40% 3 13.09.2026 -
Pablo Suárez Rentistas Aktiv 90 / 102 40% 1 13.09.2026 -
Juan Francisco Rossel Universidad Catolica Aktiv 87 / 100 40% 1 12.09.2026 -
Nicolás Azambuja Danubio Aktiv 110 / 125 40% 1 12.09.2026 -
Manuel Ospina Cortulua Aktiv 127 / 118 40% 1 10.09.2026 -
Emiliano Saliadarre Miramar Misiones Aktiv 111 / 115 40% 1 10.09.2026 -
Chris Brady Chicago Fire Aktiv 105 / 127 40% 1 09.09.2026 -
Andreas Jungdal Westerlo Aktiv 117 / 126 40% 1 08.09.2026 -
Santino Barbi Talleres Aktiv 112 / 111 40% 1 08.09.2026 -
Clemente Montes Universidad Catolica Aktiv 125 / 112 40% 1 08.09.2026 -
Eric Ramírez Carabobo Aktiv 125 / 112 40% 1 08.09.2026 -
Jefry Zapata Once Caldas Aktiv 130 / 111 40% 1 07.09.2026 -
Lucas Carrizo Plaza Colonia Aktiv 124 / 110 40% 1 07.09.2026 -
Daniil Khudyakov Sturm Graz Aktiv 126 / 118 40% 2 04.09.2026 -
Matías Daniele Belgrano Aktiv 116 / 110 40% 1 30.08.2026 -
Ángel González Libertad Aktiv 98 / 96 40% 1 30.08.2026 -
Beau Reus Waasland-Beveren Aktiv 104 / 130 40% 1 29.08.2026 -
Mamour N'Diaye Sarpsborg 08 Aktiv 111 / 113 40% 1 29.08.2026 -
Matías Medina Sportivo Luqueno Aktiv 101 / 97 40% 1 28.08.2026 -
Andrés Dávila Independiente Medellin Aktiv 83 / 112 40% 1 28.08.2026 -
Xavier Dziekoński Korona Aktiv 113 / 109 40% 1 27.08.2026 -
Thomas De Bruyne Mouscron Aktiv 104 / 111 40% 1 27.08.2026 -
Yastin Cuevas Colo-Colo Aktiv 93 / 109 40% 1 25.08.2026 -
Marcos Gómez HNK Vukovar 1991 Aktiv 97 / 104 40% 1 25.08.2026 -
Patrick Preciado Deportivo Pasto Aktiv 114 / 109 40% 1 24.08.2026 -
César Miño Olimpia Aktiv 85 / 103 40% 1 24.08.2026 -
Renzo Machado Liverpool Montevideo Aktiv 102 / 108 40% 1 22.08.2026 -
Oscar Acuña Libertad Aktiv 77 / 96 40% 1 22.08.2026 -
Ľubomír Belko Viking Aktiv 102 / 107 40% 1 20.08.2026 -
Kyrylo Fesiun Shakhtar Aktiv 118 / 102 40% 1 20.08.2026 -
Róyner Benítez Aguilas Doradas Aktiv 119 / 105 40% 3 19.08.2026 -
Ander Izarra Estudiantes de Merida Aktiv 97 / 88 40% 1 19.08.2026 -
Jordan García Leon Aktiv 90 / 120 40% 2 17.08.2026 -
Fabricio Iacovich Estudiantes Aktiv 123 / 128 40% 2 17.08.2026 -
Pablo Lara Pumas UNAM Aktiv 125 / 114 40% 2 16.08.2026 -
Nahuel Galardi Maipú Aktiv 92 / 100 40% 1 07.08.2026 -
Diego Otoya Sporting Cristal Aktiv 94 / 99 40% 1 05.08.2026 -
Tahiel Jiménez Santos Laguna Aktiv 117 / 105 40% 1 04.08.2026 -
Ihojan Pérez Cerro Largo Aktiv 99 / 91 40% 1 03.08.2026 -
Bruno Antúnez Boston River Aktiv 100 / 116 40% 1 02.08.2026 -
Diego Romero Universitario Aktiv 107 / 124 40% 1 01.08.2026 -